DECAYED

STARLINK-1616, 46148 (Decayed)

Orbit data source: Space-Track

STARLINK-1616, 46148 was a payload satellite owned by SpaceX/Seattle (US) in LEO that was launched on Tue, 18 Aug 2020 UTC via an FALCON 9 launch vehicle from the Air Force Eastern Test Range (AFETR). Payload-class satellites include a variety of spacecraft equipped with specific instruments for various scientific and technological missions. These include communications satellites like Starlink; space stations such as the ISS; scientific satellites like the Hubble; Earth observation satellites from companies like Planet Labs, Umbra, and HawkEye 360; GPS; miniature CubeSats for education and research; and military/defense satellites.

Not visible in the next 10 days
Identifier
46148, 2020-057AH
Orbit
Decayed
Last TLE update
2 months ago
Origin
Manufacturer
SpaceX/Seattle
Mission
Decayed Commercial Communications
Bus & Motor
STARLINK, Unknown motor
Mass
260 kg wet, ~248 kg dry
Launch date (UTC)
2020-08-18 (5 years ago)
Launch vehicle
FALCON 9
Launch site
Air Force Eastern Test Range (AFETR)
Object type
Payload
Rocket body
Debris
Shape & HBR
Box + 1 Pan, 8.86 m
Radar Cross Section
13.562 m², Large (>1 m²)

Expand to show TLE details & history

TLE from 2 months ago
0 STARLINK-1616
1 46148U 20057AH  25130.13237358  .24528545  12564-4  48006-3 0  9998
2 46148  53.0108 165.0888 0005025 274.3650 196.2627 16.46975005261967
Epoch: 2025-05-10T03:10Z
TLE epoch observation values (Epoch: 2025-05-10T03:10:37.077Z)
Latitude
48.53865°
Longitude
11.29901°
Altitude
155.886 km
Speed
7.817 km/s
True Right ascension
19h 08m 31s
True Declination
48° 21' 08"
Sunlit
Object was in daylight at epoch
Visualization orbit readout
Visualization observer readout
Orbital elements
Apogee altitude
150.887 km
Perigee altitude
144.329 km
Semi-major axis
6,525.745 km
Eccentricity
0.0005
Inclination
53.0108°
RAAN
165.0888°
Arg. of periapsis
274.365°
True anomaly
Unknown
Mean anomaly
196.2627°
Eccentric anomaly
Unknown
Mean motion
4.11716 °/min
Orbital period
87.44 mins
BSTAR
0.00048006
Loading maneuver chart data...
Loading SW <> Apogee altitude chart data...
Loading historical data...
Loading historical data...
Loading historical data...
Loading historical data...
Loading historical data...
Loading historical data...
Loading historical data...

STARLINK-1616 Visibility

Observer location: undefined°, undefined°

This satellite is decayed
Span
Click to sort rows by Start time (UTC) header in descending order
Start Az.
Max El. time (UTC)
Max El. Az.
Max El.
End time (UTC)
End Az.
|